Location: Peebles
(55.6412°N, 3.1714°W)
Time: 14:29:39
(UTC+01:00)

Cosmos 1844 Rocket - Pass Details

Date: 26 September 2021
Orbit: 825 x 843 km, 71.0° (Epoch: 17 October)

Event Time Altitude Azimuth Distance (km) Brightness Sun altitude
Rises 22:51:23 0° 318° (NW) 3,397 7.1 -29.7°
Reaches altitude 10° 22:54:22 10° 333° (NNW) 2,457 6.0 -30.0°
Maximum altitude 22:58:49 23° 25° (NNE) 1,697 4.5 -30.4°
Enters shadow 23:00:02 22° 44° (NE) 1,764 4.4 -30.5°
